Overview Statistics Trail Chart Weather Telemetry Raw packets
 

This is the latest recevied weather packets stored in our database for station/object IZ5MMH-4. If no packets are shown the sender has not sent any weather packets the latest 10 day(s).

<< 1 2 3 4 >>
Time Temp. Humidity Pressure Rain* Wind** Luminosity Snow
1788568463 26.11° C 55% 1019.4 hPa - - - -
1788567862 26.11° C 55% 1019.4 hPa - - - -
1788567264 26.11° C 55% 1019.6 hPa - - - -
1788566663 26.11° C 54% 1019.7 hPa - - - -
1788566063 26.11° C 55% 1019.8 hPa - - - -
1788565462 26.11° C 56% 1019.8 hPa - - - -
1788564862 26.67° C 57% 1019.9 hPa - - - -
1788564263 26.67° C 59% 1019.9 hPa - - - -
1788563662 26.67° C 61% 1019.9 hPa - - - -
1788563063 26.67° C 61% 1020 hPa - - - -
1788562463 26.67° C 58% 1020.1 hPa - - - -
1788561862 26.67° C 55% 1020.1 hPa - - - -
1788561262 26.67° C 50% 1020.1 hPa - - - -
1788560663 26.67° C 49% 1020.1 hPa - - - -
1788560062 26.67° C 49% 1020.1 hPa - - - -
1788559463 26.67° C 51% 1020 hPa - - - -
1788558862 26.67° C 50% 1020 hPa - - - -
1788558262 26.67° C 55% 1020 hPa - - - -
1788557662 26.67° C 59% 1020 hPa - - - -
1788557063 26.67° C 65% 1020 hPa - - - -
1788556462 27.22° C 69% 1020.1 hPa - - - -
1788555863 27.22° C 72% 1020.2 hPa - - - -
1788555262 27.22° C 75% 1020.3 hPa - - - -
1788554663 27.22° C 72% 1020.3 hPa - - - -
1788554062 27.22° C 71% 1020.2 hPa - - - -

* Rain since midnight (hover to see other rain measurements)
** Current wind speed in m/s (hover to see current wind gust speed)